User: anonymous   Login
Location: Peebles
(55.6412°N, 3.1714°W)
Time: 22:43:32
(UTC+00:00)
Language:

DNEPR-1 R/B - Orbit

View from above orbital plane
View from above orbital plane
View from above satellite
View from above satellite

Ground track
Ground track

The orbit data is extracted from the following two-line orbital elements,

1 26550U 00057F   21331.53292711 -.00000074  00000-0  13590-4 0  9994
2 26550  64.5656  20.7064 0508665  71.2021 294.3495 13.80826127 67012
Epoch (UTC): 27 November 2021 12:47:24
Eccentricity: 0.0508665
inclination: 64.5656°
perigee height: 587 km
apogee height: 1334 km
right ascension of ascending node: 20.7064°
argument of perigee: 71.2021°
revolutions per day: 13.80826127
mean anomaly at epoch: 294.3495°
orbit number at epoch: 6701

The dashed part of the orbit path shows where the satellite is in the earth's shadow,  

DLR